Coleman, TX

8:51 AM CST on February 06, 2016 (GMT -0600)
Coleman Municipal

Weather History for KCOM - March, 2014

Change the Weather History Date:

Sunday, March 30, 2014

  Actual Average (KABI) Record (KABI)
Temperature  
Mean Temperature 62 °F 60 °F  
Max Temperature 81 °F 73 °F 93 °F (1974)
Min Temperature 45 °F 47 °F 22 °F (1987)
Degree Days  
Heating Degree Days 2 7  
Month to date heating degree days 292  
Since 1 July heating degree days 2425  
Cooling Degree Days 0 2  
Month to date cooling degree days 28  
Year to date cooling degree days 33  
Growing Degree Days 12 (Base 50)    
Moisture  
Dew Point 34 °F    
Average Humidity 36    
Maximum Humidity 65    
Minimum Humidity 17    
Precipitation  
Precipitation 0.00 in 0.06 in 1.49 in (2007)
Month to date precipitation 1.69  
Year to date precipitation 4.07  
Sea Level Pressure  
Sea Level Pressure 30.07 in    
Wind  
Wind Speed 11 mph (South)    
Max Wind Speed 28 mph    
Max Gust Speed 34 mph    
Visibility 10 miles    
Events      
T = Trace of Precipitation, MM = Missing Value Source: NWS Daily Summary

Daily Weather History Graph

Daily Weather History Graph

Search for Another Location

Airport or City:

Trip Planner

Search our weather history database for the weather conditions in past years. The results will help you decide how hot, cold, wet, or windy it might be!

Date:

Astronomy

Mar. 30, 2014 Rise Set
Actual Time 7:28 AM CDT 7:55 PM CDT
Civil Twilight 7:04 AM CDT 8:20 PM CDT
Nautical Twilight 6:35 AM CDT 8:49 PM CDT
Astronomical Twilight 6:06 AM CDT 9:18 PM CDT
Moon 7:15 AM CDT (3/30) 8:08 PM CDT (3/30)
Length of Visible Light 13h 16m
Length of Day
12h 27m
Waning Crescent, 0% of the Moon is Illuminated
Mar 30
Waning Crescent
Mar 30
New
Apr 7
First Quarter
Apr 15
Full
Apr 22
Last Quarter

Hourly Weather History & Observations

Time (CDT) Temp. Windchill Dew Point Humidity Pressure Visibility Wind Dir Wind Speed Gust Speed Precip Events Conditions
12:15 AM 56.1 °F - 30.0 °F 37% 30.19 in 10.0 mi SE 8.1 mph - N/A   Clear
12:35 AM 56.1 °F - 30.4 °F 38% 30.20 in 10.0 mi SSE 9.2 mph - N/A   Clear
12:55 AM 57.2 °F - 30.7 °F 37% 30.20 in 10.0 mi SSE 6.9 mph - N/A   Clear
1:15 AM 54.5 °F - 31.5 °F 42% 30.20 in 10.0 mi South 4.6 mph - N/A   Clear
1:35 AM 53.2 °F - 31.3 °F 43% 30.20 in 10.0 mi South 8.1 mph - N/A   Clear
1:55 AM 51.8 °F - 31.1 °F 45% 30.20 in 10.0 mi South 5.8 mph - N/A   Clear
2:15 AM 52.5 °F - 30.6 °F 43% 30.20 in 10.0 mi SSE 3.5 mph - N/A   Clear
2:35 AM 51.4 °F - 31.5 °F 46% 30.20 in 10.0 mi South 5.8 mph - N/A   Clear
2:55 AM 50.9 °F - 30.9 °F 46% 30.20 in 10.0 mi South 4.6 mph - N/A   Clear
3:15 AM 48.9 °F - 31.8 °F 52% 30.20 in 10.0 mi SSE 5.8 mph - N/A   Clear
3:35 AM 49.1 °F - 32.0 °F 52% 30.20 in 10.0 mi SSE 6.9 mph - N/A   Clear
3:55 AM 48.7 °F - 32.0 °F 52% 30.19 in 10.0 mi SSE 4.6 mph - N/A   Clear
4:15 AM 48.2 °F - 31.3 °F 52% 30.18 in 10.0 mi South 6.9 mph - N/A   Clear
4:35 AM 47.3 °F - 32.0 °F 55% 30.18 in 10.0 mi South 5.8 mph - N/A   Clear
4:55 AM 46.0 °F 42.5 °F 32.0 °F 58% 30.17 in 10.0 mi South 6.9 mph - N/A   Clear
5:15 AM 46.8 °F - 32.0 °F 57% 30.17 in 10.0 mi South 4.6 mph - N/A   Clear
5:35 AM 47.8 °F - 32.0 °F 54% 30.17 in 10.0 mi South 4.6 mph - N/A   Clear
5:55 AM 48.9 °F - 32.0 °F 52% 30.16 in 10.0 mi South 5.8 mph - N/A   Clear
6:15 AM 47.7 °F - 32.2 °F 55% 30.16 in 10.0 mi South 4.6 mph - N/A   Clear
6:35 AM 45.5 °F 43.2 °F 32.7 °F 61% 30.16 in 10.0 mi South 4.6 mph - N/A   Clear
6:55 AM 45.0 °F 41.2 °F 32.9 °F 63% 30.16 in 10.0 mi South 6.9 mph - N/A   Clear
7:15 AM 45.0 °F 41.2 °F 34.0 °F 65% 30.16 in 10.0 mi South 6.9 mph - N/A   Clear
7:35 AM 45.7 °F 41.5 °F 33.8 °F 63% 30.16 in 10.0 mi South 8.1 mph - N/A   Clear
7:55 AM 47.3 °F - 33.8 °F 59% 30.16 in 10.0 mi South 6.9 mph - N/A   Clear
8:15 AM 48.2 °F - 34.5 °F 59% 30.17 in 10.0 mi Calm Calm - N/A   Clear
8:35 AM 49.5 °F - 35.1 °F 58% 30.17 in 10.0 mi Calm Calm - N/A   Clear
8:55 AM 52.5 °F - 35.4 °F 52% 30.17 in 10.0 mi South 5.8 mph - N/A   Clear
9:15 AM 54.9 °F - 35.6 °F 48% 30.17 in 10.0 mi SSW 8.1 mph - N/A   Clear
9:35 AM 57.4 °F - 35.4 °F 44% 30.17 in 10.0 mi South 11.5 mph - N/A   Clear
9:55 AM 60.4 °F - 35.8 °F 40% 30.17 in 10.0 mi South 15.0 mph 18.4 mph N/A   Clear
10:15 AM 63.7 °F - 33.8 °F 33% 30.17 in 10.0 mi South 18.4 mph 24.2 mph N/A   Clear
10:35 AM 65.8 °F - 33.1 °F 30% 30.17 in 10.0 mi South 18.4 mph 27.6 mph N/A   Clear
10:55 AM 67.5 °F - 33.8 °F 29% 30.17 in 10.0 mi South 21.9 mph 29.9 mph N/A   Clear
11:15 AM 68.7 °F - 33.4 °F 27% 30.16 in 10.0 mi South 16.1 mph 25.3 mph N/A   Clear
11:35 AM 69.8 °F - 32.9 °F 26% 30.15 in 10.0 mi South 17.3 mph 26.5 mph N/A   Clear
11:55 AM 71.1 °F - 32.9 °F 25% 30.14 in 10.0 mi South 18.4 mph 26.5 mph N/A   Clear
12:15 PM 72.0 °F - 33.1 °F 24% 30.13 in 10.0 mi South 18.4 mph 28.8 mph N/A   Clear
12:35 PM 72.5 °F - 32.0 °F 23% 30.12 in 10.0 mi South 20.7 mph 28.8 mph N/A   Clear
12:55 PM 73.2 °F - 32.7 °F 23% 30.11 in 10.0 mi South 18.4 mph 28.8 mph N/A   Clear
1:15 PM 74.8 °F - 32.2 °F 21% 30.09 in 10.0 mi South 18.4 mph 28.8 mph N/A   Clear
1:35 PM 76.5 °F - 32.7 °F 20% 30.07 in 10.0 mi South 17.3 mph 28.8 mph N/A   Clear
1:55 PM 77.2 °F - 31.1 °F 19% 30.06 in 10.0 mi South 20.7 mph 28.8 mph N/A   Clear
2:15 PM 77.5 °F - 30.6 °F 18% 30.05 in 10.0 mi South 19.6 mph 29.9 mph N/A   Clear
2:35 PM 78.6 °F - 32.0 °F 18% 30.03 in 10.0 mi South 19.6 mph 25.3 mph N/A   Clear
2:55 PM 79.5 °F - 32.2 °F 18% 30.01 in 10.0 mi South 17.3 mph 28.8 mph N/A   Clear
3:15 PM 80.1 °F - 31.8 °F 17% 30.00 in 10.0 mi South 20.7 mph 31.1 mph N/A   Clear
3:35 PM 80.8 °F - 32.7 °F 18% 29.99 in 10.0 mi South 21.9 mph 29.9 mph N/A   Clear
3:55 PM 80.2 °F - 32.9 °F 18% 29.97 in 10.0 mi South 15.0 mph 34.5 mph N/A   Clear
4:15 PM 80.4 °F - 32.9 °F 18% 29.96 in 10.0 mi South 23.0 mph 32.2 mph N/A   Clear
4:35 PM 80.6 °F - 32.4 °F 17% 29.95 in 10.0 mi South 20.7 mph 31.1 mph N/A   Clear
4:55 PM 80.8 °F - 34.0 °F 18% 29.94 in 10.0 mi South 27.6 mph 34.5 mph N/A   Clear
5:15 PM 80.4 °F - 33.8 °F 19% 29.93 in 10.0 mi SSE 20.7 mph 29.9 mph N/A   Clear
5:35 PM 80.8 °F - 34.0 °F 18% 29.92 in 10.0 mi South 19.6 mph 27.6 mph N/A   Clear
5:55 PM 80.2 °F - 34.5 °F 19% 29.92 in 10.0 mi South 26.5 mph 32.2 mph N/A   Clear
6:15 PM 79.7 °F - 35.4 °F 20% 29.92 in 10.0 mi South 18.4 mph 29.9 mph N/A   Clear
6:35 PM 79.3 °F - 35.4 °F 20% 29.91 in 10.0 mi SSE 23.0 mph 27.6 mph N/A   Clear
6:55 PM 78.1 °F - 34.7 °F 21% 29.91 in 10.0 mi South 19.6 mph 26.5 mph N/A   Clear
7:15 PM 77.0 °F - 34.2 °F 21% 29.91 in 10.0 mi South 19.6 mph 26.5 mph N/A   Clear
7:35 PM 75.4 °F - 36.1 °F 24% 29.90 in 10.0 mi SSE 19.6 mph 28.8 mph N/A   Clear
7:55 PM 75.2 °F - 36.5 °F 25% 29.90 in 10.0 mi South 19.6 mph 26.5 mph N/A   Clear
8:15 PM 74.3 °F - 36.7 °F 25% 29.91 in 10.0 mi South 16.1 mph 24.2 mph N/A   Clear
8:35 PM 73.6 °F - 37.8 °F 27% 29.90 in 10.0 mi South 17.3 mph 24.2 mph N/A   Clear
8:55 PM 73.0 °F - 38.3 °F 28% 29.91 in 10.0 mi South 17.3 mph 23.0 mph N/A   Clear
9:15 PM 72.5 °F - 39.2 °F 30% 29.92 in 10.0 mi South 13.8 mph 20.7 mph N/A   Clear
9:35 PM 70.7 °F - 39.4 °F 32% 29.93 in 10.0 mi South 11.5 mph - N/A   Clear
9:55 PM 70.3 °F - 39.4 °F 32% 29.93 in 10.0 mi South 12.7 mph 18.4 mph N/A   Clear
10:15 PM 69.8 °F - 39.9 °F 34% 29.93 in 10.0 mi South 12.7 mph 19.6 mph N/A   Clear
10:35 PM 69.3 °F - 40.1 °F 35% 29.93 in 10.0 mi South 13.8 mph 18.4 mph N/A   Clear
10:55 PM 68.9 °F - 40.3 °F 35% 29.93 in 10.0 mi South 18.4 mph 23.0 mph N/A   Clear
11:15 PM 68.5 °F - 41.4 °F 37% 29.93 in 10.0 mi South 18.4 mph 24.2 mph N/A   Clear
11:35 PM 68.2 °F - 42.4 °F 39% 29.92 in 10.0 mi South 15.0 mph 28.8 mph N/A   Clear
11:55 PM 66.0 °F - 42.8 °F 43% 29.93 in 10.0 mi SSE 10.4 mph - N/A   Clear